[[{"header":{"parameterUnit":"m.s-1","parameterCategory":1,"la1":30.2992,"la2":30.254,"lo1":-89.0895,"lo2":-89.0443,"dy":0.0025,"dx":0.0025,"nx":19,"ny":19,"refTime":"2026-04-05T09:00:00:Z","depth":0,"parameterNumber":2,"parameterNumberName":"U-component_of_WINDS"},"data":[0,0,0,0.0526,0.0525,0.0485,0.0485,0.0435,0.0435,0,0,0,0,0,0,0,0,0,0,0,0.054,0.0539,0.0526,0.0525,0.0485,0.0485,0.0435,0.0435,0,0,0,0,0,0,0,0,0,0,0,0.054,0.0539,0.0539,0.0525,0.0485,0.0485,0.0435,0.0465,0,0,0,0,0,0,0,0,0,0,0.0503,0.0518,0.0539,0.0539,0.0525,0.0485,0.0484,0.0466,0.0463,0.0454,0,0.0448,0,0.0441,0.0431,0.0431,0,0,0,0.0523,0.0521,0.0508,0.0539,0.0524,0.0485,0.0502,0.0464,0.0461,0.045,0.0447,0.0445,0.044,0.0431,0.0431,0.0391,0.0391,0,0,0.0525,0.0533,0.0511,0.0506,0.0513,0.0504,0.0501,0.0462,0.0459,0.0447,0.0444,0.0439,0.0431,0.0431,0.0391,0.0391,0,0,0,0.0533,0.0535,0.0523,0.0508,0.0501,0.0503,0.05,0.0461,0.0456,0.0444,0.0438,0.0431,0.043,0.0391,0.0391,0.0394,0,0,0,0.0534,0.0539,0.0524,0.0529,0.0502,0.048,0.0499,0.0459,0.0454,0.0439,0.0431,0.043,0.0391,0.0391,0.0394,0.0394,0,0,0,0.0542,0.054,0.0535,0.0529,0.0512,0.0481,0.0474,0.0458,0.0451,0.0431,0.0429,0.0391,0.0391,0.0394,0.0394,0.0386,0,0,0,0.0551,0.0537,0.0535,0.0517,0.0513,0.0484,0.0474,0.0452,0.0435,0.043,0.0391,0.0391,0.0394,0.0394,0.0386,0.038,0.0379,0,0,0.0537,0.0536,0.0524,0.0522,0.0495,0.0489,0.0462,0.0439,0.0429,0.0404,0.0403,0.0394,0.0394,0.0386,0.0368,0.0367,0,0,0,0.0523,0.0515,0.0506,0.0491,0.0474,0.0459,0.0439,0.0431,0.0409,0.0418,0.0389,0.0388,0.0383,0.038,0.0379,0.0374,0.039,0.039,0.039,0.0513,0.0503,0.0485,0.047,0.0456,0.0436,0.0423,0.0409,0.0401,0.0395,0.0387,0.0377,0.0374,0.0373,0.0369,0.0383,0.0383,0.0383,0.0383,0.0492,0.048,0.0472,0.0452,0.0441,0.0423,0.0404,0.04,0.0381,0.0382,0.0377,0.0379,0.0372,0.0368,0.0383,0.0383,0.0383,0.0383,0.0383,0.0485,0.0477,0.0468,0.0447,0.0431,0.0416,0.04,0.039,0.0381,0.0376,0.0367,0.0367,0.0366,0.0373,0.0373,0.0373,0.0373,0.0373,0.0373,0.0481,0.0471,0.0458,0.044,0.043,0.0415,0.0396,0.0386,0.0372,0.0366,0.0366,0.036,0.0374,0.0378,0.0372,0.0372,0.0372,0.0372,0.0372,0.0462,0.0466,0.0446,0.0436,0.0415,0.04,0.0389,0.0369,0.0358,0.0351,0.0346,0.0358,0.0355,0.0356,0.0359,0.0348,0.0348,0.0348,0.0348,0.0456,0.0454,0.0433,0.0418,0.0402,0.039,0.0369,0.0355,0.034,0.0333,0.0333,0.0337,0.0338,0.0334,0.0335,0.0338,0.0322,0.0322,0.0322,0.0445,0.0441,0.0424,0.0412,0.0394,0.038,0.0359,0.0342,0.0326,0.0321,0.0328,0.0329,0.0334,0.0336,0.0331,0.0333,0.0337,0,0]},{"header":{"parameterUnit":"m.s-1","parameterCategory":1,"la1":30.2992,"la2":30.254,"lo1":-89.0895,"lo2":-89.0443,"dy":0.0025,"dx":0.0025,"nx":19,"ny":19,"refTime":"2026-04-05T09:00:00:Z","depth":0,"parameterNumber":3,"parameterNumberName":"V-component_of_WINDS"},"data":[0,0,0,-5.2889,-5.2891,-5.3011,-5.3011,-5.3168,-5.3169,0,0,0,0,0,0,0,0,0,0,0,-5.2858,-5.286,-5.2888,-5.2892,-5.3011,-5.3011,-5.3167,-5.3169,0,0,0,0,0,0,0,0,0,0,0,-5.2858,-5.2859,-5.2861,-5.2892,-5.3011,-5.3011,-5.3167,-5.3075,0,0,0,0,0,0,0,0,0,0,-5.2958,-5.2936,-5.2859,-5.2861,-5.2893,-5.3011,-5.3011,-5.307,-5.3081,-5.3116,0,-5.3152,0,-5.3163,-5.318,-5.3181,0,0,0,-5.2887,-5.2927,-5.2955,-5.2861,-5.2894,-5.3011,-5.2956,-5.3076,-5.3088,-5.313,-5.3154,-5.3159,-5.3166,-5.3181,-5.3182,-5.341,-5.3412,0,0,-5.288,-5.2882,-5.2947,-5.2963,-5.2948,-5.2952,-5.2959,-5.3083,-5.3108,-5.3154,-5.3163,-5.3168,-5.3182,-5.3184,-5.3409,-5.3411,0,0,0,-5.2864,-5.2877,-5.2902,-5.2957,-5.2978,-5.2955,-5.2964,-5.3102,-5.3111,-5.3165,-5.317,-5.3183,-5.3185,-5.3408,-5.341,-5.3477,0,0,0,-5.286,-5.2868,-5.2899,-5.2901,-5.2976,-5.3042,-5.2981,-5.3102,-5.3116,-5.3169,-5.3183,-5.3187,-5.3406,-5.3409,-5.3473,-5.3509,0,0,0,-5.2849,-5.2866,-5.2886,-5.2901,-5.2953,-5.304,-5.3056,-5.3105,-5.312,-5.3181,-5.3187,-5.3405,-5.3408,-5.3468,-5.3502,-5.3571,0,0,0,-5.2836,-5.2941,-5.2887,-5.3007,-5.2952,-5.3082,-5.3055,-5.315,-5.3211,-5.3184,-5.3407,-5.341,-5.3467,-5.3497,-5.3567,-5.3631,-5.3658,0,0,-5.297,-5.2958,-5.3028,-5.2983,-5.3124,-5.3064,-5.3213,-5.3265,-5.3267,-5.3362,-5.3367,-5.3474,-5.3501,-5.357,-5.3806,-5.3827,0,0,0,-5.3071,-5.3122,-5.3159,-5.3219,-5.3264,-5.3305,-5.3334,-5.3353,-5.3435,-5.3317,-5.3517,-5.3533,-5.3573,-5.3604,-5.3623,-5.3658,-5.3424,-5.3423,-5.3423,-5.3263,-5.3264,-5.3381,-5.3397,-5.3455,-5.3486,-5.3532,-5.3563,-5.3543,-5.3591,-5.3619,-5.3763,-5.3799,-5.3813,-5.3849,-5.3652,-5.3652,-5.3653,-5.3653,-5.3461,-5.3534,-5.3509,-5.3615,-5.3614,-5.3701,-5.3735,-5.3719,-5.3799,-5.374,-5.3776,-5.3714,-5.3836,-5.3868,-5.3658,-5.3657,-5.3656,-5.3656,-5.3656,-5.3587,-5.3623,-5.3647,-5.3735,-5.3802,-5.3812,-5.3892,-5.3887,-5.3882,-5.3918,-5.3948,-5.3947,-5.3946,-5.3932,-5.3933,-5.3933,-5.3934,-5.3934,-5.3934,-5.371,-5.3735,-5.3805,-5.3863,-5.3902,-5.3952,-5.3985,-5.4021,-5.4061,-5.4051,-5.4051,-5.4028,-5.3848,-5.3804,-5.3942,-5.3941,-5.394,-5.3939,-5.3939,-5.3913,-5.3867,-5.3975,-5.4014,-5.4082,-5.415,-5.4143,-5.4219,-5.4249,-5.4288,-5.4258,-5.4125,-5.4111,-5.4097,-5.406,-5.4257,-5.4257,-5.4257,-5.4257,-5.4021,-5.4015,-5.4125,-5.4188,-5.4249,-5.4255,-5.4375,-5.4401,-5.442,-5.4438,-5.4409,-5.4359,-5.4345,-5.434,-5.432,-5.4286,-5.4535,-5.4535,-5.4536,-5.4147,-5.4146,-5.4251,-5.4273,-5.4326,-5.4372,-5.4485,-5.4557,-5.4568,-5.4547,-5.4453,-5.4441,-5.4361,-5.4335,-5.4312,-5.4282,-5.4219,0,0]}]]